Location: Oakhurst
(33.6448°N, 111.9543°W)
Time: 05:01:48
(UTC+00:00)

QB50P2 - Pass Details

Date: 29 July 2021
Orbit: 593 x 608 km, 97.9° (Epoch: 26 September)

Event Time Altitude Azimuth Distance (km) Brightness Sun altitude
Rises 08:11:20 0° 16° (NNE) 2,855 ? -37.0°
Reaches altitude 10° 08:13:32 10° 20° (NNE) 1,951 ? -36.9°
Enters shadow 08:14:16 15° 22° (NNE) 1,655 ? -36.8°
